Location: Los Ranchitos
(37.9930°N, 122.5425°W)
Time: 08:14:07
(UTC+00:00)

Cosmos 921 Rocket - Pass Details

Date: 21 September 2020
Orbit: 571 x 632 km, 75.8° (Epoch: 28 October)

Event Time Altitude Azimuth Distance (km) Brightness Sun altitude
Exits shadow 11:56:54 37° 346° (NNW) 901 3.9 -24.1°
Drops below altitude 10° 11:59:39 10° 7° (N) 1,882 5.8 -23.6°
Sets 12:01:54 0° 12° (NNE) 2,787 6.8 -23.2°
